Stündliche Wetter Cegielnia

Heute, 22 Januar, Freitag

Zeit Temperatur Niederschläge Wind Luftdruck Luftfeuchtigkeit
00:00 0°C° 0 mm 3 m/S 738 mmHg 89%
01:00 0°C° 0 mm 3 m/S 738 mmHg 89%
02:00 -1°C° 0 mm 4 m/S 738 mmHg 89%
03:00 -1°C° 0 mm 4 m/S 737 mmHg 89%
04:00 -1°C° 0 mm 4 m/S 737 mmHg 89%
05:00 0°C° 0 mm 4 m/S 736 mmHg 89%
06:00 0°C° 0 mm 4 m/S 736 mmHg 89%
07:00 0°C° 0 mm 4 m/S 736 mmHg 88%
08:00 +1°C° 0 mm 5 m/S 735 mmHg 89%
09:00 +2°C° 0 mm 5 m/S 735 mmHg 90%
10:00 +2°C° 0 mm 6 m/S 735 mmHg 90%
11:00 +3°C° 0 mm 6 m/S 734 mmHg 88%
12:00 +4°C° 0 mm 6 m/S 734 mmHg 86%
13:00 +4°C° 0 mm 6 m/S 733 mmHg 83%
14:00 +4°C° 0 mm 6 m/S 733 mmHg 84%
15:00 +3°C° 0 mm 5 m/S 733 mmHg 85%
16:00 +2°C° 0 mm 5 m/S 733 mmHg 86%
17:00 +2°C° 0 mm 5 m/S 734 mmHg 87%
18:00 +2°C° 0 mm 5 m/S 734 mmHg 87%
19:00 +2°C° 0 mm 5 m/S 734 mmHg 88%
20:00 +3°C° 0.1 mm 4 m/S 734 mmHg 90%
21:00 +3°C° 0.1 mm 4 m/S 734 mmHg 91%
22:00 +3°C° 0.1 mm 4 m/S 734 mmHg 93%
23:00 +2°C° 0 mm 3 m/S 734 mmHg 92%

Morgen, 23 Januar, Samstag

Zeit Temperatur Niederschläge Wind Luftdruck Luftfeuchtigkeit
00:00 +2°C° 0 mm 3 m/S 734 mmHg 92%
01:00 +2°C° 0 mm 3 m/S 734 mmHg 91%
02:00 +2°C° 0 mm 3 m/S 734 mmHg 92%
03:00 +2°C° 0 mm 3 m/S 733 mmHg 92%
04:00 +2°C° 0 mm 3 m/S 733 mmHg 92%
05:00 +2°C° 0 mm 3 m/S 733 mmHg 92%
06:00 +1°C° 0 mm 4 m/S 733 mmHg 92%
07:00 +1°C° 0 mm 4 m/S 733 mmHg 93%
08:00 +2°C° 0 mm 5 m/S 733 mmHg 91%
09:00 +3°C° 0 mm 6 m/S 732 mmHg 90%
10:00 +4°C° 0 mm 6 m/S 732 mmHg 88%
11:00 +4°C° 0 mm 7 m/S 732 mmHg 86%
12:00 +5°C° 0 mm 7 m/S 732 mmHg 84%
13:00 +5°C° 0 mm 7 m/S 732 mmHg 82%
14:00 +5°C° 0 mm 7 m/S 732 mmHg 82%
15:00 +4°C° 0 mm 6 m/S 731 mmHg 82%
16:00 +4°C° 0 mm 6 m/S 731 mmHg 83%
17:00 +4°C° 0 mm 6 m/S 731 mmHg 83%
18:00 +4°C° 0 mm 7 m/S 731 mmHg 83%
19:00 +4°C° 0 mm 7 m/S 731 mmHg 82%
20:00 +3°C° 0 mm 6 m/S 731 mmHg 85%
21:00 +3°C° 0 mm 5 m/S 731 mmHg 87%
22:00 +3°C° 0 mm 4 m/S 731 mmHg 89%
23:00 +3°C° 0 mm 3 m/S 731 mmHg 90%

übermorgen, 24 Januar, Sonntag

Zeit Temperatur Niederschläge Wind Luftdruck Luftfeuchtigkeit
00:00 +2°C° 0 mm 3 m/S 731 mmHg 91%
01:00 +3°C° 0 mm 2 m/S 731 mmHg 92%
02:00 +2°C° 0 mm 2 m/S 731 mmHg 90%
03:00 +2°C° 0 mm 2 m/S 731 mmHg 89%
04:00 +1°C° 0 mm 2 m/S 731 mmHg 87%
05:00 +1°C° 0.1 mm 2 m/S 731 mmHg 87%
06:00 +1°C° 0.1 mm 2 m/S 731 mmHg 87%
07:00 +1°C° 0.1 mm 2 m/S 731 mmHg 87%
08:00 -1°C° 0.4 mm 2 m/S 731 mmHg 90%
09:00 -1°C° 0.4 mm 2 m/S 731 mmHg 93%
10:00 -1°C° 0.4 mm 2 m/S 731 mmHg 96%
11:00 -1°C° 0.7 mm 2 m/S 731 mmHg 97%
12:00 -1°C° 0.7 mm 2 m/S 731 mmHg 97%
13:00 -1°C° 0.7 mm 2 m/S 731 mmHg 97%
14:00 -1°C° 0.4 mm 2 m/S 731 mmHg 97%
15:00 -1°C° 0.4 mm 2 m/S 731 mmHg 97%
16:00 -1°C° 0.4 mm 2 m/S 731 mmHg 98%
17:00 -1°C° 0 mm 2 m/S 732 mmHg 97%
18:00 -1°C° 0 mm 2 m/S 732 mmHg 97%
19:00 -1°C° 0 mm 2 m/S 732 mmHg 97%
20:00 -1°C° 0 mm 2 m/S 733 mmHg 96%
21:00 -1°C° 0 mm 2 m/S 733 mmHg 94%
22:00 -2°C° 0 mm 2 m/S 733 mmHg 93%
23:00 -2°C° 0 mm 2 m/S 733 mmHg 94%

25 Januar, Montag

Zeit Temperatur Niederschläge Wind Luftdruck Luftfeuchtigkeit
00:00 -2°C° 0 mm 2 m/S 733 mmHg 94%
01:00 -1°C° 0 mm 1 m/S 733 mmHg 94%
02:00 -1°C° 0 mm 1 m/S 734 mmHg 95%
03:00 -3°C° 0 mm 2 m/S 734 mmHg 95%
04:00 -3°C° 0 mm 2 m/S 734 mmHg 96%
05:00 -1°C° 0 mm 1 m/S 734 mmHg 95%
06:00 -1°C° 0 mm 1 m/S 735 mmHg 94%
07:00 -1°C° 0 mm 1 m/S 735 mmHg 94%
08:00 0°C° 0 mm 1 m/S 735 mmHg 91%
09:00 -2°C° 0 mm 2 m/S 735 mmHg 89%
10:00 -1°C° 0 mm 2 m/S 736 mmHg 87%
11:00 -1°C° 0 mm 3 m/S 736 mmHg 86%
12:00 -1°C° 0 mm 3 m/S 736 mmHg 86%
13:00 -1°C° 0 mm 4 m/S 735 mmHg 85%
14:00 -1°C° 0 mm 4 m/S 736 mmHg 86%
15:00 -2°C° 0 mm 4 m/S 736 mmHg 86%
16:00 -2°C° 0 mm 5 m/S 736 mmHg 87%
17:00 -2°C° 0 mm 5 m/S 736 mmHg 86%
18:00 -3°C° 0 mm 6 m/S 736 mmHg 85%
19:00 -4°C° 0 mm 7 m/S 736 mmHg 84%
20:00 -4°C° 0 mm 7 m/S 736 mmHg 84%
21:00 -4°C° 0 mm 7 m/S 736 mmHg 83%
22:00 -5°C° 0 mm 8 m/S 736 mmHg 83%
23:00 -5°C° 0 mm 8 m/S 736 mmHg 83%

26 Januar, Dienstag

Zeit Temperatur Niederschläge Wind Luftdruck Luftfeuchtigkeit
00:00 -5°C° 0 mm 8 m/S 736 mmHg 83%
01:00 -5°C° 0 mm 8 m/S 736 mmHg 83%
02:00 -5°C° 0 mm 8 m/S 736 mmHg 83%
03:00 -5°C° 0 mm 8 m/S 736 mmHg 83%
04:00 -5°C° 0 mm 8 m/S 736 mmHg 82%
05:00 -5°C° 0 mm 8 m/S 736 mmHg 83%
06:00 -5°C° 0 mm 8 m/S 736 mmHg 83%
07:00 -5°C° 0 mm 9 m/S 736 mmHg 83%
08:00 -5°C° 0.1 mm 9 m/S 737 mmHg 84%
09:00 -5°C° 0.1 mm 9 m/S 737 mmHg 85%
10:00 -5°C° 0.1 mm 9 m/S 737 mmHg 87%
11:00 -4°C° 0.1 mm 9 m/S 737 mmHg 84%
12:00 -4°C° 0.1 mm 9 m/S 737 mmHg 81%
13:00 -4°C° 0.1 mm 9 m/S 738 mmHg 79%
14:00 -4°C° 0 mm 8 m/S 738 mmHg 79%
15:00 -4°C° 0 mm 8 m/S 738 mmHg 79%
16:00 -5°C° 0 mm 8 m/S 739 mmHg 79%
17:00 -4°C° 0 mm 7 m/S 739 mmHg 81%
18:00 -4°C° 0 mm 7 m/S 739 mmHg 83%
19:00 -4°C° 0 mm 7 m/S 739 mmHg 86%
20:00 -4°C° 0 mm 7 m/S 740 mmHg 85%
21:00 -4°C° 0 mm 7 m/S 740 mmHg 84%
22:00 -4°C° 0 mm 7 m/S 740 mmHg 84%
23:00 -4°C° 0 mm 7 m/S 740 mmHg 83%

27 Januar, Mittwoch

Zeit Temperatur Niederschläge Wind Luftdruck Luftfeuchtigkeit
00:00 -4°C° 0 mm 7 m/S 740 mmHg 82%
01:00 -4°C° 0 mm 7 m/S 740 mmHg 81%
02:00 -5°C° 0 mm 6 m/S 740 mmHg 81%
03:00 -5°C° 0 mm 6 m/S 740 mmHg 81%
04:00 -5°C° 0 mm 6 m/S 740 mmHg 81%
05:00 -5°C° 0 mm 5 m/S 741 mmHg 82%
06:00 -5°C° 0 mm 5 m/S 741 mmHg 83%
07:00 -5°C° 0 mm 5 m/S 741 mmHg 84%
08:00 -5°C° 0 mm 5 m/S 741 mmHg 82%
09:00 -4°C° 0 mm 5 m/S 741 mmHg 80%
10:00 -4°C° 0 mm 5 m/S 741 mmHg 79%
11:00 -2°C° 0 mm 5 m/S 741 mmHg 77%
12:00 -2°C° 0 mm 4 m/S 741 mmHg 75%
13:00 -1°C° 0 mm 4 m/S 741 mmHg 74%
14:00 -2°C° 0 mm 4 m/S 741 mmHg 76%
15:00 -1°C° 0 mm 3 m/S 741 mmHg 79%
16:00 -2°C° 0 mm 3 m/S 741 mmHg 82%
17:00 -2°C° 0 mm 2 m/S 741 mmHg 83%
18:00 -3°C° 0 mm 2 m/S 741 mmHg 84%
19:00 -3°C° 0 mm 2 m/S 741 mmHg 85%
20:00 -3°C° 0.1 mm 2 m/S 742 mmHg 88%
21:00 -3°C° 0.1 mm 2 m/S 742 mmHg 91%
22:00 -3°C° 0.1 mm 2 m/S 742 mmHg 94%
23:00 -3°C° 0.1 mm 2 m/S 742 mmHg 95%
Mehr zeigen

Wir brauchen deine Erlaubnis

Meteoprog und unser Service Anbieter werden persönliche Daten aufbewahren, so wie Cookies, Geräte Bezeichnung oder ähnliche Technologien von deinem Gerät und Prozess, so wie Persönliche Daten Inhalte und Werbungen, genauso wie social Media und den Verkehr zu analysieren.

  • Aufbewahrung und/oder Zugang zu deiner Geräte Informationen.

    Cookies, Geräte Bezeichnung oder andere Informationen, können aufbewahrt oder Zugang zu deinem Gerät erhalten, für den Grund, der oben angegeben wird.

  • Personalisierte Werbung und Inhalte, Messungen, Einblick in das Publikum und Produkt Entwicklung.

    Werbungen und Inhalte können personalisiert werden, basierend auf ein Profil. Mehr Daten können besser personalisierte Werbungen und Inhalte hinzufügen. Werbung und Inhalte können gezeigt und gemessen werden. Einblicke über das Publikum, welche die Werbung gesehen haben und den Inhalt, können abgeleitet werden. So wie Daten können genutzt werden, um es zu verbessern oder die Benutzer Erfahrung zu verbessern das System und die Software.

Wenn du “Ich stimme zu” klickst, erlaubst du uns, die Cookies zu benutzen die Geräte Bezeichnung, den Web oder ähnliche Technologien zu benutzen. Deine Settings, können in deinem Gerät bei deinem Browser geändert werden.

Für den bestimmten Zweck, berechtigten Interessen beruhen darauf, mehr als auf den Inhalt. Du kannst mehr darüber in unseren Privaten und Cookie Politik lesen.